Regional Weather Roundup
Issued by NWS Sioux Falls, SD

Home | Current Version | Previous Version | Graphics & Text | Print | Product List | Glossary Off
Versions: 1 2 3 4 5 6 7 8 9 10 11 12 13 14 15 16 17 18 19 20 21 22 23 24 25 26 27 28 29 30 31 32 33 34 35 36 37 38 39 40 41 42 43 44 45 46 47 48 49 50

000
ASUS43 KFSD 300810
RWRFSD

WEATHER ROUNDUP FOR SE SOUTH DAKOTA/SW MINNESOTA/NW IOWA
NATIONAL WEATHER SERVICE SIOUX FALLS SD
300 AM CDT SUN APR 30 2017

NOTE: "FAIR" INDICATES FEW OR NO CLOUDS BELOW 12,000 FEET WITH NO
SIGNIFICANT WEATHER AND OR OBSTRUCTIONS TO VISIBILITY.


SDZ038>040-050-052>070-300900-
SOUTHEAST SOUTH DAKOTA

CITY           SKY/WX    TMP DP  RH WIND       PRES   REMARKS
BROOKINGS      CLOUDY    43  24  47 NE8       30.07F
CHAMBERLAIN    CLOUDY    45  28  52 NW8       30.07F
HURON          CLOUDY    40  30  67 N8        30.09F
MADISON        CLOUDY    41  25  52 NE12      30.06F
MITCHELL       CLOUDY    45  28  51 NE9       30.06F
SIOUX FALLS    CLOUDY    45  29  53 NE12      30.04F
WINNER         FAIR      38  27  64 N7        30.07F
YANKTON        CLOUDY    45  27  49 N13       30.00F
$$

MNZ071-072-080-081-089-090-097-098-300900-
SOUTHWEST MINNESOTA

CITY           SKY/WX    TMP DP  RH WIND       PRES   REMARKS
FAIRMONT       CLOUDY    45  31  58 NE15      30.04F
JACKSON        CLOUDY    43  32  65 NE10      30.05F
LUVERNE        CLOUDY    45  25  45 NE12      30.05F
MARSHALL       CLOUDY    44  28  53 NE10      30.08F
MONTEVIDEO     CLOUDY    43  25  49 E7        30.11F
PIPESTONE      CLOUDY    45  21  39 E9        30.05F
REDWOOD FALLS  CLOUDY    45  26  47 E7        30.09F
TRACY          CLOUDY    44  31  60 NE8       30.08F
WINDOM         CLOUDY    45  27  49 NE10      30.06F
WORTHINGTON    CLOUDY    43  27  53 NE15      30.04F
$$

IAZ001>003-012>014-020>022-031-032-NEZ013-014-SDZ071-300900-
NORTHWEST IOWA

CITY           SKY/WX    TMP DP  RH WIND       PRES   REMARKS
CHEROKEE       CLOUDY    42  35  76 NE12G22   29.99F
DENISON        CLOUDY    37  37 100 NE23G31   29.95F FOG
ESTHERVILLE    CLOUDY    44  32  62 NE16      30.03F
ORANGE CITY    LGT RAIN  45  34  65 E20G26    30.00F
SHELDON        MIX PCPN  45  32  61 NE17G24   30.01F
SIOUX CITY     CLOUDY    43  35  73 NE13      29.98F
SPENCER        LGT RAIN  43  35  73 NE10      30.02F
STORM LAKE     CLOUDY    39  36  87 NE29G37   29.96F
$$

ABBREVIATIONS USED IN REMARKS
   TC - TEMPERATURE IN CELSIUS
  WCI - WIND CHILL INDEX
   HX - HEAT INDEX
  VSB - VISIBILITY





USA.gov is the U.S. government's official web portal to all federal, state and local government web resources and services.